Flag for Czech Republic Weather past 2 weeks in Plzen, Czech Republic

Now
35 °F

Chilly.


Feels Like: 31 °F
Forecast: 35 / 41 °F
Wind: 5 mph from Southwest

Location: Kocelovice

Current Time: Mar 31, 2015 at 5:32:34 AM

Latest Report: Mar 31, 2015 at 4:00 AM


Visibility: 13 mi

Pressure: 29.80 "Hg

Humidity: 69%

Dew point: 26 °F

Location of PlzenLocation

Historic Weather in Plzen — Graph

°F

Plzen temperature yesterday

Maximum temperature yesterday: 49 °F (at 1:00 AM)
Minimum temperature yesterday: 35 °F (at 9:00 PM)
Average temperature yesterday: 42 °F

Past Weeks' High & Low Weather Summary

 TemperatureHumidityPressure
High58 °F (Mar 25, 1:00 PM)97% (Mar 25, 5:00 AM)30.39 "Hg (Mar 25, 5:00 AM)
Low26 °F (Mar 20, 7:00 AM)22% (Mar 20, 3:00 PM)29.35 "Hg (Mar 30, 2:00 AM)
Average42 °F70%30.03 "Hg
* Reported Mar 16 3:00 AM — Mar 31 4:00 AM, Plzen, Weather by CustomWeather, © 2015

Note: Actual official high and low records may vary slightly from our data, if they occured in-between our weather recording intervals... More about our weather records

Advertising

Plzen weather history for previous 24 hours

 ConditionsComfort  
Time TempWeatherWind HumidityBarometerVisibility
4:00 AM
Tue, Mar 31
35 °FChilly.5 mph69%29.80 "Hg12 mi
3:00 AM35 °FChilly.3 mph70%29.85 "Hg12 mi
2:00 AM36 °FChilly.5 mph64%29.86 "Hg12 mi
1:00 AM34 °FChilly.5 mph77%29.88 "Hg12 mi
12:00 AM35 °FChilly.6 mph77%29.89 "Hg12 mi
11:00 PM
Mon, Mar 30
36 °FChilly.7 mph74%29.88 "Hg12 mi
10:00 PM36 °FOvercast.8 mph76%29.86 "Hg19 mi
9:00 PM35 °FLight mixture of precip. Overcast.10 mph89%29.83 "Hg6 mi
8:00 PM35 °FPassing clouds.8 mph88%29.78 "Hg8 mi
7:00 PM40 °FPartly sunny.12 mph65%29.71 "Hg19 mi
6:00 PM43 °FPassing clouds.9 mph54%29.66 "Hg22 mi
5:00 PM40 °FThunderstorms. Partly sunny.10 mph71%29.65 "Hg7 mi
4:00 PM44 °FThunderstorms. Partly sunny.9 mph66%29.59 "Hg9 mi
3:00 PM41 °FPartly sunny.10 mph76%29.59 "Hg12 mi
2:00 PM40 °FPartly sunny.9 mph76%29.57 "Hg5 mi
1:00 PM45 °FPartly sunny.14 mph47%29.50 "Hg19 mi
12:00 PM46 °FPartly sunny.12 mph51%29.47 "Hg28 mi
11:00 AM43 °FOvercast.12 mph72%29.47 "Hg19 mi
10:00 AM41 °FLight rain. Overcast.10 mph77%29.44 "Hg14 mi
9:00 AM41 °FLight rain. Overcast.9 mph80%29.47 "Hg12 mi
8:00 AM41 °FLow clouds.7 mph83%29.44 "Hg11 mi
7:00 AM40 °FChilly.7 mph81%29.44 "Hg12 mi
6:00 AM40 °FRain showers. Overcast.8 mph78%29.44 "Hg12 mi
5:00 AM41 °FQuite cool.9 mph80%29.44 "Hg12 mi
Weather by CustomWeather, © 2015

See weather overviewHow to use our weather pages